[[{"header":{"parameterUnit":"m.s-1","parameterCategory":1,"la1":30.2991,"la2":30.254,"lo1":-89.0895,"lo2":-89.0444,"dy":0.0017,"dx":0.0017,"nx":28,"ny":28,"refTime":"2024-06-25T09:00:00:Z","depth":0,"parameterNumber":2,"parameterNumberName":"U-component_of_WINDS"},"data":[0,0,0,0,0,0,0,0,0,0,0,0,0,0,0,0,0,0,0,0,0,0,0,0,0,0,0,0,0,0,0,0,0,0,0,0,0,0,0,0,0,0,0,0,0,0,0,0,0,0,0,0,0,0,0,0,0,0,5.0379,5.0381,0,5.0559,5.0561,5.0563,5.0515,5.0512,5.0508,5.0505,5.0689,5.0697,5.0705,0,0,0,0,0,0,0,0,0,0,0,0,0,4.9992,5.0,5.0379,5.0381,5.0383,5.0559,5.0561,5.0564,5.0516,5.0512,5.0507,5.0503,5.0686,5.0696,5.0706,0,0,0,0,0,0,0,0,0,0,0,0,0,5.0165,5.0002,5.0379,5.0381,5.0383,5.0558,5.0561,5.0564,5.0517,5.0511,5.0506,5.0501,5.0683,5.0695,5.0707,5.0891,0,0,5.0745,5.075,0,0,0,0,0,0,0,0,5.0156,5.0179,5.0378,5.0381,5.0383,5.0509,5.0492,5.0674,5.0518,5.0466,5.0505,5.0498,5.0633,5.0649,5.0695,5.09,5.0908,5.0746,5.0753,5.0759,5.0762,0,0,0,0,0,0,0,5.0144,5.0171,5.045,5.0381,5.0384,5.0372,5.0391,5.0527,5.0578,5.047,5.0467,5.0489,5.0634,5.0683,5.0699,5.091,5.0746,5.0757,5.0764,5.0769,5.1275,5.1281,0,0,0,0,0,0,5.013,5.0162,5.0444,5.0456,5.0254,5.0384,5.0405,5.0474,5.0576,5.0586,5.0493,5.0486,5.0665,5.0685,5.0705,5.0927,5.0759,5.077,5.0777,5.1269,5.1276,5.1283,0,0,0,0,0,0,5.0122,5.0155,5.0437,5.0308,5.0343,5.0396,5.0475,5.0481,5.053,5.0594,5.0602,5.0535,5.0661,5.0688,5.0845,5.0933,5.0776,5.0787,5.1262,5.1271,5.128,5.1373,0,0,0,0,0,0,5.0111,5.0153,5.0224,5.031,5.035,5.0575,5.048,5.0488,5.0552,5.0544,5.0635,5.0645,5.0659,5.0827,5.0858,5.0947,5.0797,5.1254,5.1266,5.1277,5.1363,5.1384,5.1403,0,0,0,0,0,5.0097,5.0243,5.0227,5.0262,5.044,5.058,5.0603,5.0617,5.0559,5.063,5.0671,5.0642,5.0919,5.0844,5.0878,5.0972,5.1249,5.1263,5.1276,5.1353,5.138,5.1403,0,0,0,0,0,0,5.0165,5.0254,5.0238,5.0416,5.0491,5.0572,5.0662,5.0644,5.0737,5.0726,5.0739,5.076,5.092,5.0962,5.0877,5.1156,5.1075,5.1096,5.1123,5.1148,5.1168,5.1155,5.0807,0,0,0,0,0,5.0201,5.0308,5.0379,5.053,5.0568,5.0609,5.067,5.0675,5.0752,5.0784,5.0836,5.0912,5.1016,5.1085,5.1184,5.1368,5.1387,5.145,5.147,5.1487,5.1505,5.1605,5.1633,5.1327,5.1327,5.1327,0,0,5.0276,5.0338,5.0404,5.0545,5.0603,5.0713,5.0636,5.0755,5.0837,5.0802,5.0953,5.0995,5.1081,5.1252,5.1331,5.1292,5.1593,5.1504,5.1517,5.1526,5.1621,5.165,5.1676,5.1337,5.1335,5.1333,0,0,5.0468,5.0526,5.0657,5.0718,5.0807,5.0833,5.0865,5.0948,5.0974,5.1127,5.1103,5.12,5.1379,5.1441,5.1496,5.1712,5.1689,5.1744,5.185,5.1947,5.1971,5.1993,5.2069,5.2097,5.1762,5.1762,5.1762,0,5.055,5.0715,5.0727,5.0849,5.0911,5.0885,5.1017,5.1075,5.1192,5.1236,5.1191,5.1415,5.1471,5.1657,5.171,5.1755,5.1791,5.1734,5.1967,5.1989,5.2009,5.2082,5.2111,5.1768,5.1768,5.1767,5.1767,0,5.0811,5.0926,5.1021,5.1135,5.1208,5.1335,5.1365,5.1438,5.1436,5.1466,5.1622,5.1688,5.18,5.1845,5.1844,5.2031,5.2004,5.1963,5.1882,5.2044,5.2113,5.2141,5.1777,5.1775,5.1773,5.1772,0,0,5.1052,5.117,5.1205,5.1256,5.1353,5.1442,5.1567,5.1677,5.1738,5.182,5.1925,5.2077,5.204,5.2103,5.2109,5.2194,5.236,5.2143,5.2145,5.218,5.2569,5.2599,5.2631,5.2345,5.2351,5.2355,5.2562,0,5.1252,5.1473,5.1487,5.1687,5.1793,5.1769,5.1878,5.1949,5.1981,5.2075,5.211,5.2217,5.2161,5.2198,5.2282,5.2322,5.2438,5.2308,5.2443,5.2447,5.2421,5.2667,5.2699,5.2891,5.2589,5.2593,5.2597,0,5.1516,5.1606,5.1816,5.1897,5.1942,5.204,5.2141,5.2232,5.2311,5.2328,5.2398,5.2392,5.252,5.2435,5.2612,5.2523,5.2579,5.2607,5.2615,5.2627,5.2531,5.2686,5.2952,5.2981,5.2639,5.2636,5.2633,0,5.167,5.1843,5.1991,5.2036,5.2134,5.2203,5.2248,5.2322,5.2387,5.2475,5.2518,5.262,5.2676,5.2755,5.2777,5.2713,5.2953,5.287,5.297,5.297,5.3021,5.3018,5.33,5.3059,5.3058,5.3058,5.3057,0,5.1892,5.2022,5.2061,5.2153,5.2296,5.2311,5.2454,5.2493,5.256,5.2658,5.2643,5.2735,5.2758,5.2855,5.2873,5.3016,5.3041,5.3058,5.3061,5.306,5.3057,5.3096,5.3083,5.3065,5.3064,5.3062,5.3061,0,5.2088,5.212,5.228,5.236,5.2383,5.2486,5.2554,5.2641,5.2671,5.2795,5.2825,5.2872,5.2985,5.3014,5.315,5.3161,5.333,5.3321,5.3303,5.3302,5.3401,5.3391,5.3717,5.3761,5.3492,5.3494,5.3496,0,5.2228,5.2327,5.2417,5.2482,5.2529,5.2634,5.27,5.2718,5.2787,5.2885,5.2961,5.3072,5.3161,5.3343,5.3389,5.3492,5.3485,5.3592,5.35,5.3495,5.3485,5.3479,5.3488,5.3609,5.3612,5.3614,5.3616,0,5.2472,5.2483,5.2579,5.2681,5.276,5.2841,5.2918,5.2972,5.3001,5.3079,5.3194,5.3264,5.3402,5.3512,5.3616,5.3661,5.3644,5.3645,5.3673,5.3672,5.3657,5.3666,5.335,5.3637,5.3635,5.3634,5.3632,5.3632,5.2644,5.273,5.2807,5.2915,5.2975,5.3047,5.3133,5.3173,5.327,5.3383,5.3388,5.3513,5.359,5.3727,5.3778,5.3876,5.3843,5.3885,5.3895,5.3905,5.3913,5.3642,5.3895,5.3894,5.3894,5.3893,5.3893,0,5.2887,5.2935,5.3033,5.3142,5.3226,5.3203,5.3287,5.3359,5.3469,5.3542,5.363,5.3762,5.3869,5.3923,5.4029,5.4097,5.4092,5.4124,5.4119,5.4129,5.3937,5.3901,5.4127,5.4126,5.4126,5.4126,5.4126,5.4126,5.3023,5.3168,5.3188,5.3362,5.3409,5.3531,5.3581,5.3648,5.3706,5.3854,5.3943,5.3977,5.4043,5.4153,5.425,5.4263,5.4302,5.4339,5.4348,5.4167,5.4143,5.412,5.4087,5.4348,5.4348,5.4532,5.4534,5.4535]},{"header":{"parameterUnit":"m.s-1","parameterCategory":1,"la1":30.2991,"la2":30.254,"lo1":-89.0895,"lo2":-89.0444,"dy":0.0017,"dx":0.0017,"nx":28,"ny":28,"refTime":"2024-06-25T09:00:00:Z","depth":0,"parameterNumber":3,"parameterNumberName":"V-component_of_WINDS"},"data":[0,0,0,0,0,0,0,0,0,0,0,0,0,0,0,0,0,0,0,0,0,0,0,0,0,0,0,0,0,0,0,0,0,0,0,0,0,0,0,0,0,0,0,0,0,0,0,0,0,0,0,0,0,0,0,0,0,0,0.4821,0.4821,0,0.4791,0.4791,0.4791,0.4748,0.4747,0.4747,0.4746,0.4717,0.4717,0.4716,0,0,0,0,0,0,0,0,0,0,0,0,0,0.4841,0.4841,0.4821,0.4821,0.482,0.4791,0.4791,0.4791,0.4748,0.4747,0.4746,0.4746,0.4717,0.4717,0.4716,0,0,0,0,0,0,0,0,0,0,0,0,0,0.4824,0.4841,0.4821,0.4796,0.4793,0.4791,0.4791,0.479,0.4748,0.4747,0.4746,0.4745,0.4717,0.4717,0.4716,0.4738,0,0,0.4716,0.4716,0,0,0,0,0,0,0,0,0.4825,0.4823,0.48,0.4797,0.4794,0.4772,0.4787,0.4773,0.4749,0.4765,0.4746,0.4745,0.4736,0.4734,0.4731,0.4736,0.4735,0.4716,0.4716,0.4716,0.4716,0,0,0,0,0,0,0,0.4826,0.4824,0.4809,0.4799,0.4796,0.4786,0.4782,0.4784,0.4757,0.4764,0.4761,0.4758,0.4734,0.4731,0.473,0.4735,0.4716,0.4716,0.4716,0.4716,0.4755,0.4756,0,0,0,0,0,0,0.4831,0.4826,0.481,0.4808,0.4807,0.4786,0.4782,0.4781,0.4757,0.4753,0.4759,0.4756,0.4732,0.473,0.4729,0.4752,0.4716,0.4716,0.4716,0.4754,0.4755,0.4756,0,0,0,0,0,0,0.4832,0.483,0.4811,0.4816,0.4813,0.4787,0.4786,0.4781,0.4777,0.4753,0.4748,0.4761,0.4731,0.4729,0.4736,0.475,0.4716,0.4715,0.4752,0.4754,0.4756,0.4798,0,0,0,0,0,0,0.4832,0.4831,0.4838,0.4817,0.4813,0.4819,0.4786,0.4781,0.4777,0.4773,0.4754,0.4749,0.473,0.4736,0.4735,0.475,0.4715,0.4751,0.4753,0.4755,0.4796,0.4801,0.4806,0,0,0,0,0,0.4833,0.4852,0.4839,0.4837,0.4822,0.482,0.4817,0.4795,0.4779,0.4786,0.477,0.475,0.4749,0.4737,0.4736,0.475,0.475,0.4752,0.4755,0.4793,0.48,0.4806,0,0,0,0,0,0,0.4877,0.4849,0.4834,0.4846,0.4836,0.4812,0.4821,0.4803,0.4797,0.4793,0.4766,0.4762,0.4771,0.4761,0.4749,0.4769,0.4746,0.4749,0.4776,0.4782,0.4787,0.479,0.4715,0,0,0,0,0,0.4888,0.4888,0.4863,0.4877,0.4872,0.4848,0.4846,0.4829,0.4817,0.4812,0.4797,0.4786,0.4783,0.4782,0.4778,0.4794,0.4789,0.4803,0.4808,0.4813,0.4815,0.4822,0.4828,0.4764,0.4764,0.4764,0,0,0.4911,0.4895,0.4897,0.4885,0.4875,0.4876,0.4844,0.4847,0.4847,0.4813,0.4818,0.4806,0.4792,0.4803,0.4807,0.4795,0.4832,0.4816,0.482,0.482,0.4826,0.4832,0.4837,0.4766,0.4766,0.4766,0,0,0.4953,0.4941,0.4951,0.4941,0.4925,0.4909,0.4911,0.4891,0.4881,0.4886,0.486,0.486,0.4855,0.4846,0.4841,0.4879,0.486,0.4878,0.4906,0.4914,0.4919,0.4923,0.4936,0.4941,0.4881,0.4881,0.4881,0,0.4984,0.4984,0.4958,0.4962,0.4957,0.4925,0.4935,0.4926,0.4911,0.4908,0.4894,0.4888,0.4876,0.4884,0.4893,0.489,0.4892,0.4881,0.492,0.4924,0.4928,0.494,0.4945,0.4883,0.4883,0.4883,0.4882,0,0.5022,0.5022,0.5032,0.5017,0.5013,0.5019,0.4995,0.4994,0.4977,0.4962,0.4967,0.4951,0.4944,0.4944,0.4928,0.495,0.4943,0.4925,0.4901,0.4937,0.4948,0.4952,0.4887,0.4886,0.4885,0.4884,0,0,0.5091,0.5061,0.5065,0.5058,0.5038,0.5038,0.5043,0.5035,0.5034,0.5024,0.5028,0.5024,0.5007,0.5001,0.4984,0.499,0.502,0.4971,0.497,0.4981,0.5043,0.5057,0.5063,0.5007,0.5008,0.5008,0.5044,0,0.513,0.5136,0.5113,0.5126,0.5126,0.5095,0.5099,0.5087,0.5073,0.5071,0.5055,0.5053,0.5031,0.5027,0.5032,0.5016,0.5032,0.5013,0.501,0.501,0.5015,0.5068,0.5083,0.5118,0.5048,0.5049,0.505,0,0.5176,0.5168,0.518,0.5159,0.5158,0.5162,0.5152,0.515,0.5136,0.5125,0.5118,0.5098,0.5101,0.5078,0.5081,0.5068,0.5066,0.5057,0.5058,0.5058,0.5032,0.5069,0.5128,0.5133,0.5056,0.5056,0.5055,0,0.5225,0.5217,0.5224,0.5218,0.5194,0.5197,0.5187,0.5172,0.5168,0.5159,0.5157,0.5149,0.5144,0.5139,0.5116,0.5101,0.5122,0.5098,0.5114,0.5114,0.512,0.512,0.5179,0.5118,0.5118,0.5118,0.5118,0,0.5271,0.528,0.5245,0.525,0.5258,0.5231,0.5241,0.5228,0.5214,0.5215,0.5188,0.5189,0.5159,0.5157,0.514,0.5145,0.5143,0.5135,0.513,0.5137,0.5138,0.5136,0.5133,0.5119,0.5119,0.5118,0.5118,0,0.5328,0.5306,0.531,0.5286,0.528,0.5288,0.5267,0.527,0.5254,0.5255,0.5254,0.5228,0.5224,0.5201,0.5192,0.518,0.5192,0.5182,0.5197,0.5194,0.5211,0.521,0.5271,0.5277,0.5212,0.5212,0.5213,0,0.5359,0.5365,0.5341,0.534,0.5331,0.5329,0.5324,0.5298,0.5294,0.5278,0.5283,0.5276,0.527,0.5265,0.5246,0.5238,0.5228,0.525,0.5227,0.5234,0.5229,0.5229,0.5229,0.5255,0.5256,0.5257,0.5258,0,0.5416,0.5404,0.5399,0.539,0.5386,0.5377,0.5367,0.5368,0.5338,0.5336,0.5331,0.5326,0.5316,0.531,0.5299,0.5289,0.5268,0.5265,0.5268,0.5276,0.5284,0.528,0.521,0.5264,0.5263,0.5263,0.5262,0.5262,0.5461,0.5464,0.5448,0.5443,0.5433,0.5424,0.5425,0.5408,0.5404,0.5394,0.5378,0.5376,0.536,0.5344,0.5335,0.5332,0.532,0.5325,0.5327,0.5328,0.5332,0.5284,0.533,0.533,0.533,0.533,0.5329,0,0.5516,0.5504,0.55,0.5486,0.5482,0.5463,0.5451,0.5449,0.5447,0.5434,0.5428,0.5423,0.5416,0.5396,0.5388,0.539,0.538,0.5388,0.5388,0.5386,0.5343,0.5341,0.5396,0.5396,0.5396,0.5396,0.5396,0.5396,0.5545,0.555,0.5536,0.5535,0.5523,0.552,0.5515,0.5506,0.5496,0.5491,0.5486,0.5472,0.5457,0.5447,0.544,0.5434,0.5432,0.5444,0.5435,0.5396,0.5389,0.5383,0.5381,0.5444,0.5444,0.5478,0.5479,0.5479]}]]